Погода в Надднестрянское

Украина / Винницкая область     48°38′40″N   27°25′24″E
темп.,
°C
ветер,
м/с
пор.,
м/с
влажн.,
%
обл.,
%
осадки,
мм/ч
давл.,
гПа
погр.,
м
19 января, ср
ср1923:00−4ссз815665 0.0 1028981
02:00−4сз713755 0.0 1030645
05:00−6сз5128664 0.0 1030371
08:00−5сз51190100 0.0 1030393
11:00−2сз61083100 0.0 1029627
14:000зсз5772100 0.0 1026651
17:00−3з259075 0.0 102589
20:00−2з3888100 0.0 1023330
20 января, чт
чт2023:00−3зюз2683100 0.0 1021144
02:00−4ю3880100 0.0 1019161
05:00−5ююв2675100 0.0 101695
08:00−6ю128694 0.0 101419
11:00−1з236426 0.0 1013184
14:00+1з376092 0.0 1010350
17:00−1з41087100 0.1 1009471
20:00−1з3995100 1.3 1009450
21 января, пт
пт2123:00−2зсз7128198 0.3 1009710
02:00−4зсз7147976 0.3 1012868
05:00−4з81580100 0.0 1012968
08:00−4з91577100 0.0 10131059
11:00−3з9167179 0.0 10131160
14:00−2з91471100 0.0 10121134
17:00−3зсз8157996 0.0 1013860
20:00−4з8158598 0.0 1013813
22 января, сб
сб2223:00−5з8158182 0.0 1013742
02:00−5з81581100 0.0 1012826
05:00−5зсз71485100 0.0 1011728
08:00−5зсз61286100 0.1 1012754
11:00−3зсз7117999 0.0 1013898
14:00−3зсз797697 0.1 10121105
17:00−4зсз51081100 0.0 1013628
20:00−4зсз5119298 0.1 1014658
23 января, вс
вс2323:00−6ссз499356 0.1 1017345
02:00−6ссз5989100 0.1 1019576
05:00−7ссз489279 0.1 1020378
08:00−7ссз4791100 0.1 1021471
11:00−6с4678100 0.0 1024720
14:00−5ссв4572100 0.1 1025846
17:00−6с4884100 0.1 1027487
20:00−8с4991100 0.1 1029314